ATLAS D R/B

Satellite information

Favourite Embed

Satellite Type and Status

ROCKET BODYIN ORBIT

Key statistics

Satellite ATLAS D R/B at a glance.

Uptime

21662

Days in orbit

Revolutions

≈ 13.7

Per day

Orbit

SSO

Sun Synchronous Orbit

Inclination

144.2

Latest

Satellite identification and parameters

Extended collection of information and parameters for ATLAS D R/B.

Object identification

Identified? True

Debris? False

Object name: ATLAS D R/B

International designator: 1966-063C

Object number (NORAD): 2328

Object ID (CCSDS): 2328

Country: UNITED STATES OF AMERICA (US)

Current information (Y/N): Y

RCS size: MEDIUM

Orbital parameters

Period: 105.112 minutes

Inclination: 144.2326 deg

SMA: 7377.836 km

Apoapsis: 1006.515 km

Periapsis: 992.887 km

RAAN: 14.4228 deg

Eccentricy: 0.0009236

Argument of periapsis: 57.0327 deg

Mean anomaly: 319.9184 deg

Mean motion: 13.69964423 rev/day

Mean motion (dot): 0.00000284 rev/day2

B* drag term: 0.000041205 1/REarth

Two-line elements (TLE)

Creation date: Nov. 2, 2025, 3:46 p.m.

Reference frame: TEME

Reference center: EARTH

Epoch: Nov. 2, 2025, 10:40 a.m. UTC

TLE line 0: 0 ATLAS D R/B

TLE line 1: 1 2328U 66063C 25306.44497457 .00000284 00000-0 41205-4 0 9996

TLE line 2: 2 2328 144.2326 14.4228 0009236 57.0327 319.9184 13.69964423969145

Live tracking on map

Real-time ground track for satellite ATLAS D R/B.

In-orbit conjunctions

A list of the most updated potential collisions computed for object ATLAS D R/B.

Target Orbit TCA Probability of collision Miss distance Type
FENGYUN 1C DEB SSO 2024-07-14 23:50:36 0.0003312741 315.0 (m) DEBRIS

Associated space launch

The OV1 (Orbiting Vehicle 1) were small research satellite to be launched piggy back on Atlas ICBM test flights. They consisted in general of the OV1 satellite and the OV1-PM propulsion module (or upper stage) to reach orbit.

ATLAS D R/B was lifted into orbit during the mission ‘Atlas D | OV1-7’, on board a Atlas D space rocket.

The launch took place on July 14, 1966, 2:10 a.m. from 576B3.

For more information about the launch, click the button.

Launch to space Atlas D | OV1-7
Atlas D | OV1-7

Agency: N/A

Status: Launch Successful

Launch date: July 14, 1966, 2:10 a.m. UTC

Rocket: Atlas D

Launch pad: 576B3

Location: Vandenberg SFB, CA, USA

...

Latest news about this satellite

There are no fresh news available about this satellite. Check back as we update our databases every day.


Newsletter sign-up

Weekly statistics, charts and insights to help you stay on top of the space industry.